ERS-1

Last updated on Thu Oct 30 2025 00:02:15 GMT+0000 (Coordinated Universal Time)

1 21574U 91050A 25302.52454919 .00000465 00000+0 16398-3 0 9999 2 21574 98.7933 312.4672 0031167 230.1794 129.6649 14.39313561796868
UTC large
Height (km)
Speed (km/s)
/
Latitude / Longitude
Inclination (degrees)
Orbital Period (minutes)
Azimuth
Elevation
Range (km)
Doppler Factor

Next 0 passes for location: London (51.5072 / 0.1276)

Sorry there are no passes over London.